Location: Darmstadt
(49.8706°N, 8.6494°E)
Time: 06:11:46
(UTC+01:00)

Okean 3 Rocket - Pass Details

Date: 31 October 2020
Orbit: 615 x 645 km, 82.5° (Epoch: 02 December)

Event Time Altitude Azimuth Distance (km) Brightness Sun altitude
Rises 19:06:11 0° 354° (N) 2,899 7.1 -20.2°
Reaches altitude 10° 19:08:29 10° 0° (N) 1,989 6.2 -20.5°
Enters shadow 19:11:36 37° 33° (NNE) 961 4.2 -21.0°
